一网星座-0440星 (ONEWEB-0440 )

导读 | 星芒AI

ONEWEB-0440 是 OneWeb 卫星星座计划中的一颗低轨通信卫星,旨在为全球提供高速互联网服务。该卫星采用标准化设计,具备高容量通信能力,支持偏远和农村地区的网络接入。作为 OneWeb 扩展其全球覆盖范围的一部分,ONEWEB-0440 由火箭发射进入近地轨道,并与其他卫星协同工作,构建稳定的卫星通信网络。该计划致力于弥合数字鸿沟,提升全球通信基础设施水平。

基本信息
目录编号:
50503
目录名称:
ONEWEB-0440
国际标识:
2021-132AL
轨道中心:
EARTH
卫星名称:
一网星座-0440星
卫星全名:
一网星座-0440星 (ONEWEB-0440 )
卫星状态:
在轨 (已飞行1449 天)
发射日期:
2021-12-27 UTC
国别 :
英国 (GB)
星等 :
--
轨道信息
数据来源 国际轨道数据 AOE轨道数据
星历时间 2025-12-15T03:34:00+0800
23小时前
查看轨道信息
2025-12-10T20:00:00+0800
5天前
查看轨道信息
半长轴 7567.881km 7567.879km
偏心率 0.0002199 0.0001914
轨道倾角 87.918° 87.919°
近地点辐角 92.250° 94.585°
升交点赤经 12.065° 12.924°
平近点角 267.889° 311.532°
近地点 1188.081km 1188.295km
远地点 1191.411km 1191.193km
周期 109.200分钟 109.200分钟
每日圈数 13.186859 13.186863
详细信息
平衡模式:
三轴稳定
覆盖范围:
全球
运营商:
一网卫星公司
运营商所在国:
英国
制造商(研发单位):
一网卫星公司
制造商所在国:
英国
使用方式:
暂无
卫星简介
OneWeb卫星网络由648颗重约125公斤的微型卫星组成,运行在1200公里的轨道上。 每颗卫星都能够提供至少每秒8千兆位的吞吐量,以使用其高吞吐量的Ku频段有效载荷为家庭和移动平台提供互联网接入。该卫星仍在工作。
2D轨道图
3D轨道图
轨道高度分析图
轨道倾角分析图
轨道综合分析图
查看轨道综合分析图